Weather History for Bentonville, AR

Change the Weather History Date:

Monday, December 3, 2012

  Actual Average Record
Temperature  
Mean Temperature 68 °F -  
Max Temperature 73 °F 51 °F 73 °F (1956)
Min Temperature 62 °F 29 °F 8 °F (1985)
Cooling Degree Days 2    
Growing Degree Days 18 (Base 50)    
Moisture  
Dew Point 55 °F    
Average Humidity 66    
Maximum Humidity 77    
Minimum Humidity 47    
Precipitation  
Precipitation 0.00 in - - ()
Sea Level Pressure  
Sea Level Pressure 29.93 in    
Wind  
Wind Speed 13 mph (South)    
Max Wind Speed 22 mph    
Max Gust Speed 38 mph    
Visibility 10 miles    
Events      
Averages and records for this station are not official NWS values.
T = Trace of Precipitation, MM = Missing Value Source: NWS Daily Summary

Daily Weather History Graph

Daily Weather History Graph

Search for Another Location

Airport:

Trip Planner

Search our weather history database for the weather conditions in past years. The results will help you decide how hot, cold, wet, or windy it might be!

Date:

Astronomy

Dec. 03, 2012 Rise Set
Actual Time 7:12 AM CST 5:01 PM CST
Civil Twilight 6:43 AM CST 5:30 PM CST
Nautical Twilight 6:11 AM CST 6:01 PM CST
Astronomical Twilight 5:40 AM CST 6:33 PM CST
Moon 9:44 PM CST (12/3) 10:39 AM CST (12/3)
Length of Visible Light 10h 46m
Length of Day
9h 49m
Waning Gibbous, 78% of the Moon is Illuminated
Dec 3
Waning Gibbous
Dec 6
Last Quarter
Dec 13
New
Dec 19
First Quarter
Dec 28
Full

Hourly Weather History & Observations

Time (CST) Temp. Dew Point Humidity Pressure Visibility Wind Dir Wind Speed Gust Speed Precip Events Conditions
12:15 AM 66.2 °F 57.2 °F 73% 29.98 in 10.0 mi South 13.8 mph 21.9 mph N/A   Clear
12:35 AM 66.2 °F 57.2 °F 73% 29.98 in 10.0 mi South 13.8 mph 20.7 mph N/A   Clear
12:56 AM 64.4 °F 57.2 °F 77% 29.97 in 10.0 mi South 16.1 mph 19.6 mph N/A   Clear
1:35 AM 64.4 °F 57.2 °F 77% 29.96 in 10.0 mi South 10.4 mph 17.3 mph N/A   Clear
1:55 AM 64.4 °F 55.4 °F 73% 29.97 in 10.0 mi South 15.0 mph 21.9 mph N/A   Clear
2:15 AM 64.4 °F 55.4 °F 73% 29.97 in 10.0 mi SSW 13.8 mph 20.7 mph N/A   Clear
2:35 AM 64.4 °F 55.4 °F 73% 29.97 in 10.0 mi South 11.5 mph 17.3 mph N/A   Mostly Cloudy
2:55 AM 64.4 °F 55.4 °F 73% 29.96 in 10.0 mi South 11.5 mph 18.4 mph N/A   Partly Cloudy
3:15 AM 64.4 °F 55.4 °F 73% 29.96 in 10.0 mi South 11.5 mph 19.6 mph N/A   Clear
3:36 AM 64.4 °F 55.4 °F 73% 29.96 in 10.0 mi South 12.7 mph 19.6 mph N/A   Clear
3:55 AM 64.4 °F 55.4 °F 73% 29.95 in 10.0 mi South 12.7 mph 18.4 mph N/A   Scattered Clouds
4:55 AM 64.4 °F 55.4 °F 73% 29.95 in 10.0 mi South 10.4 mph - N/A   Mostly Cloudy
5:15 AM 64.4 °F 55.4 °F 73% 29.94 in 10.0 mi South 10.4 mph - N/A   Partly Cloudy
5:35 AM 64.4 °F 55.4 °F 73% 29.94 in 10.0 mi South 12.7 mph 18.4 mph N/A   Partly Cloudy
6:15 AM 62.6 °F 55.4 °F 77% 29.93 in 10.0 mi South 12.7 mph 17.3 mph N/A   Clear
7:16 AM 62.6 °F 55.4 °F 77% 29.93 in 10.0 mi South 11.5 mph 18.4 mph N/A   Clear
7:35 AM 62.6 °F 55.4 °F 77% 29.93 in 10.0 mi South 12.7 mph 20.7 mph N/A   Clear
7:55 AM 64.4 °F 55.4 °F 73% 29.93 in 10.0 mi South 12.7 mph 21.9 mph N/A   Clear
8:35 AM 64.4 °F 55.4 °F 73% 29.94 in 10.0 mi South 15.0 mph 26.5 mph N/A   Overcast
9:35 AM 64.4 °F 55.4 °F 73% 29.96 in 10.0 mi South 16.1 mph 24.2 mph N/A   Mostly Cloudy
9:55 AM 66.2 °F 55.4 °F 68% 29.96 in 10.0 mi South 16.1 mph 20.7 mph N/A   Mostly Cloudy
10:15 AM 66.2 °F 55.4 °F 68% 29.96 in 10.0 mi South 13.8 mph 21.9 mph N/A   Mostly Cloudy
10:36 AM 69.8 °F 55.4 °F 60% 29.95 in 10.0 mi SSW 13.8 mph 24.2 mph N/A   Mostly Cloudy
10:55 AM 69.8 °F 55.4 °F 60% 29.95 in 10.0 mi South 18.4 mph 25.3 mph N/A   Overcast
11:15 AM 69.8 °F 55.4 °F 60% 29.94 in 10.0 mi South 21.9 mph 26.5 mph N/A   Mostly Cloudy
11:55 AM 71.6 °F 55.4 °F 57% 29.92 in 10.0 mi South 21.9 mph 31.1 mph N/A   Scattered Clouds
12:15 PM 71.6 °F 55.4 °F 57% 29.91 in 10.0 mi South 16.1 mph 26.5 mph N/A   Mostly Cloudy
12:35 PM 71.6 °F 55.4 °F 57% 29.91 in 10.0 mi SSW 16.1 mph 27.6 mph N/A   Overcast
1:15 PM 71.6 °F 53.6 °F 53% 29.88 in 10.0 mi SSW 19.6 mph 38.0 mph N/A   Mostly Cloudy
1:35 PM 73.4 °F 53.6 °F 50% 29.88 in 10.0 mi South 18.4 mph 25.3 mph N/A   Mostly Cloudy
1:55 PM 73.4 °F 53.6 °F 50% 29.87 in 10.0 mi South 18.4 mph 28.8 mph N/A   Scattered Clouds
2:15 PM 73.4 °F 51.8 °F 47% 29.86 in 10.0 mi South 15.0 mph 27.6 mph N/A   Partly Cloudy
2:35 PM 73.4 °F 53.6 °F 50% 29.86 in 10.0 mi South 18.4 mph 26.5 mph N/A   Clear
2:56 PM 73.4 °F 53.6 °F 50% 29.87 in 10.0 mi South 20.7 mph 27.6 mph N/A   Clear
3:15 PM 73.4 °F 53.6 °F 50% 29.86 in 10.0 mi South 17.3 mph 25.3 mph N/A   Clear
3:35 PM 73.4 °F 53.6 °F 50% 29.86 in 10.0 mi South 17.3 mph 26.5 mph N/A   Clear
4:15 PM 71.6 °F 53.6 °F 53% 29.86 in 10.0 mi South 16.1 mph 27.6 mph N/A   Clear
4:35 PM 71.6 °F 53.6 °F 53% 29.88 in 10.0 mi South 15.0 mph 25.3 mph N/A   Clear
4:55 PM 71.6 °F 53.6 °F 53% 29.88 in 10.0 mi SSW 10.4 mph 18.4 mph N/A   Clear
5:16 PM 69.8 °F 51.8 °F 53% 29.89 in 10.0 mi South 9.2 mph - N/A   Clear
5:35 PM 69.8 °F 53.6 °F 56% 29.90 in 10.0 mi South 9.2 mph - N/A   Clear
5:55 PM 69.8 °F 51.8 °F 53% 29.91 in 10.0 mi SSW 6.9 mph - N/A   Clear
6:35 PM 66.2 °F 51.8 °F 60% 29.93 in 10.0 mi SSW 4.6 mph - N/A   Partly Cloudy
6:55 PM 66.2 °F 51.8 °F 60% 29.94 in 10.0 mi South 4.6 mph - N/A   Mostly Cloudy
7:15 PM 66.2 °F 53.6 °F 64% 29.94 in 10.0 mi South 3.5 mph - N/A   Overcast
7:35 PM 64.4 °F 53.6 °F 68% 29.94 in 10.0 mi South 5.8 mph - N/A   Overcast
7:55 PM 64.4 °F 53.6 °F 68% 29.95 in 10.0 mi SSE 5.8 mph - N/A   Overcast
8:35 PM 64.4 °F 53.6 °F 68% 29.94 in 10.0 mi South 10.4 mph - N/A   Mostly Cloudy
8:55 PM 64.4 °F 53.6 °F 68% 29.94 in 10.0 mi South 8.1 mph - N/A   Partly Cloudy
9:15 PM 64.4 °F 55.4 °F 73% 29.94 in 10.0 mi South 10.4 mph 16.1 mph N/A   Clear
9:35 PM 64.4 °F 55.4 °F 73% 29.94 in 10.0 mi South 11.5 mph 16.1 mph N/A   Clear
9:55 PM 64.4 °F 55.4 °F 73% 29.95 in 10.0 mi South 9.2 mph 16.1 mph N/A   Clear
10:15 PM 64.4 °F 55.4 °F 73% 29.95 in 10.0 mi South 9.2 mph - N/A   Clear
10:35 PM 64.4 °F 55.4 °F 73% 29.95 in 10.0 mi South 8.1 mph - N/A   Clear
10:55 PM 64.4 °F 55.4 °F 73% 29.95 in 10.0 mi South 9.2 mph - N/A   Clear
11:15 PM 64.4 °F 57.2 °F 77% 29.95 in 10.0 mi South 6.9 mph - N/A   Clear
11:35 PM 64.4 °F 55.4 °F 73% 29.95 in 10.0 mi South 9.2 mph - N/A   Clear
11:55 PM 64.4 °F 57.2 °F 77% 29.95 in 10.0 mi South 8.1 mph - N/A   Clear